Flag for Switzerland Weather past 2 weeks in Schwyz, Schwyz, Switzerland

Now
32 °F

Passing clouds.


Feels Like: 29 °F
Forecast: 19 / 36 °F
Wind: 3 mph from South

Location: Altdorf

Current Time: Jan 25, 2015 at 7:56:31 PM

Latest Report: Jan 25, 2015 at 7:00 PM


Visibility: 14 mi

Pressure: 30.45 "Hg

Humidity: 65%

Dew point: 21 °F

Location of SchwyzLocation

Historic Weather in Schwyz — Graph

°F

Schwyz temperature yesterday

Maximum temperature yesterday: 37 °F (at 5:00 PM)
Minimum temperature yesterday: 33 °F (at 6:00 AM)
Average temperature yesterday: 35 °F

Past Weeks' High & Low Weather Summary

 TemperatureHumidityPressure
High58 °F (Jan 16, 11:00 AM)95% (Jan 14, 10:00 PM)30.54 "Hg (Jan 14, 10:00 PM)
Low25 °F (Jan 18, 11:00 PM)23% (Jan 13, 2:00 PM)29.62 "Hg (Jan 16, 3:00 PM)
Average39 °F76%30.06 "Hg
* Reported Jan 10 6:00 PM — Jan 25 6:00 PM, Schwyz, Weather by CustomWeather, © 2014

Note: Actual official high and low records may vary slightly from our data, if they occured in-between our weather recording intervals... More about our weather records

Advertising

Schwyz weather history for previous 24 hours

 ConditionsComfort  
Time TempWeatherWind HumidityBarometerVisibility
6:00 PM
Jan 25
34 °FChilly.7 mph67%30.44 "HgN/A
5:00 PM35 °FChilly.10 mph62%30.42 "HgN/A
4:00 PM35 °FPartly sunny.14 mph66%30.42 "Hg14 mi
3:00 PM36 °FChilly.14 mph65%30.41 "HgN/A
2:00 PM38 °FChilly.14 mph65%30.40 "HgN/A
1:00 PM37 °FPartly sunny.20 mph66%30.42 "Hg16 mi
12:00 PM35 °FChilly.14 mph69%30.44 "HgN/A
11:00 AM35 °FChilly.17 mph74%30.43 "HgN/A
10:00 AM34 °FPartly sunny.13 mph79%30.42 "Hg9 mi
9:00 AM34 °FChilly.9 mph84%30.42 "HgN/A
8:00 AM33 °FChilly.10 mph91%30.40 "HgN/A
7:00 AM32 °FLight snow. Ice fog.2 mph95%30.39 "Hg1 mi
6:00 AM32 °FChilly.3 mph92%30.37 "HgN/A
5:00 AM33 °FChilly.10 mph86%30.35 "HgN/A
3:00 AM34 °FChilly.9 mph74%30.34 "HgN/A
2:00 AM34 °FChilly.15 mph76%30.32 "HgN/A
1:00 AM34 °FSnow flurries. Overcast.15 mph77%30.30 "Hg11 mi
12:00 AM34 °FChilly.17 mph75%30.29 "HgN/A
11:00 PM
Jan 24
35 °FChilly.9 mph74%30.28 "HgN/A
9:00 PM35 °FChilly.7 mph79%30.25 "HgN/A
8:00 PM35 °FChilly.14 mph79%30.23 "HgN/A
7:00 PM35 °FOvercast.2 mph72%30.21 "Hg12 mi
Weather by CustomWeather, © 2014

See weather overviewHow to use our weather pages